Probability
0 0 1 1 1 0 0 0 0 0 0 0 0 0 0 0 1 1 0 0 0 0 1 2 2 3 5 6 6 6 7 8 7 4 3 3 1 0 0 0 0 0 0 0 0 0 0 0 0
0 0 0 0 0 0 0 0 0 0 0 0 0 0 0 1 2 2 1 0 0 0 0 2 3 4 6 7 7 6 7 7 6 4 3 2 1 0 0 0 0 0 0 0 0 0 0 0 0
0 0 0 0 0 0 0 0 0 0 0 0 0 0 1 2 2 2 1 0 0 0 0 3 7 7 8 8 7 6 6 6 6 5 3 2 1 0 0 0 0 0 0 0 0 0 0 0 0
0 0 0 0 0 0 0 0 0 0 0 0 1 1 1 2 1 1 0 0 0 0 1 6 10 10 9 9 8 7 7 6 6 6 4 3 2 1 1 1 1 1 1 1 1 2 1 0 0
0 0 0 0 0 0 0 0 0 0 1 1 2 2 2 1 1 0 0 0 0 1 3 7 12 12 9 9 9 9 8 7 6 6 5 4 3 3 3 4 4 4 3 3 3 3 2 1 1
0 0 0 0 0 0 0 1 1 1 2 2 2 2 2 1 1 1 0 0 1 3 4 6 10 10 8 8 9 10 9 7 6 7 7 6 5 4 5 6 6 6 5 4 3 3 1 1 1
0 0 0 0 0 0 0 1 2 2 3 3 2 2 1 1 1 2 1 1 3 5 6 5 5 6 6 6 7 8 8 7 6 7 7 7 5 5 5 6 6 6 5 4 3 3 1 0 1
0 0 0 0 0 0 0 1 1 1 2 3 3 2 1 1 3 4 4 4 5 5 6 4 2 2 3 4 4 5 6 5 5 5 6 4 3 3 3 4 4 4 3 3 3 3 2 1 0
0 0 0 0 0 0 0 0 0 0 1 2 2 2 1 3 5 6 6 6 5 5 5 4 1 0 1 2 2 2 3 4 4 4 3 1 1 1 1 1 1 1 1 1 3 3 2 1 0
0 0 0 0 0 0 0 0 0 0 0 1 1 1 2 4 5 6 6 5 5 4 3 3 1 1 1 1 0 0 1 2 3 3 2 1 0 0 0 0 0 0 0 1 2 2 2 1 0
0 0 0 0 0 0 0 0 0 0 0 0 0 1 2 4 4 4 4 4 4 3 3 1 1 1 1 0 0 0 0 1 2 3 4 2 1 0 0 0 0 0 0 0 1 1 1 0 0
0 0 0 0 0 0 0 0 0 0 0 0 0 1 2 3 3 3 3 3 3 3 2 1 0 0 0 0 0 0 0 0 1 3 4 4 3 1 0 0 1 1 1 0 0 0 0 0 0
0 0 0 0 0 0 0 0 0 0 0 0 0 1 2 3 3 3 3 3 3 3 1 0 0 0 0 0 0 0 0 0 0 1 3 4 4 2 1 1 1 2 2 1 0 0 0 0 0
0 0 0 0 0 0 0 0 0 0 0 0 0 0 1 2 3 3 3 3 3 2 1 0 0 0 0 0 0 0 0 0 0 0 1 1 3 4 3 1 1 3 3 2 1 0 0 0 0
0 0 0 0 0 0 0 0 0 0 0 0 0 0 0 1 1 2 3 3 3 2 1 0 0 0 0 0 0 0 0 0 0 0 0 0 1 3 4 3 2 2 3 2 1 0 0 0 0
0 0 0 0 0 0 0 0 0 0 0 0 0 0 0 0 0 1 2 3 2 1 0 0 0 0 0 0 0 0 0 0 0 0 0 0 0 1 3 3 2 1 1 2 1 0 0 0 0
0 0 0 0 0 0 0 0 0 0 0 0 0 0 0 0 0 0 1 2 1 0 0 0 0 0 0 0 0 0 0 0 0 0 0 0 0 0 1 2 1 0 0 1 1 0 0 0 0
0 0 0 0 0 0 0 0 0 0 0 0 0 0 0 0 0 0 0 0 0 0 0 1 0 0 0 0 0 0 0 0 0 0 0 0 0 0 0 0 0 0 0 0 0 0 0 0 0
0 0 0 0 0 0 0 0 0 0 0 0 0 0 0 0 0 0 0 0 0 0 0 0 0 0 0 0 0 0 0 0 0 0 0 0 0 0 0 0 0 0 0 0 0 0 0 0 0
0 0 0 0 0 0 0 0 0 0 0 0 0 0 0 0 0 0 0 0 0 0 0 0 0 0 0 0 0 0 0 0 0 0 0 0 0 0 0 0 0 0 0 0 0 0 0 0 0
0 0 0 0 0 0 0 0 0 0 0 0 0 0 0 0 0 0 0 0 0 0 0 0 0 0 0 0 0 0 0 0 0 0 0 0 0 0 0 0 0 0 0 0 0 0 0 0 0
0 0 0 0 0 0 0 0 0 0 0 0 0 0 0 0 0 0 0 0 0 0 0 0 0 0 0 0 0 0 0 0 0 0 0 0 0 0 0 0 0 0 0 0 0 0 0 0 0
0 0 0 0 0 0 0 0 0 0 0 0 0 0 0 0 0 0 1 0 0 0 0 0 0 0 0 0 0 0 0 0 0 0 0 0 0 0 0 0 0 0 0 0 0 0 0 0 0
0 0 0 0 0 0 0 0 0 0 0 0 0 0 0 0 0 0 0 0 0 0 0 0 0 0 0 0 0 0 0 0 0 0 0 0 0 0 0 0 0 0 0 0 0 0 0 0 0
0 0 0 0 0 0 0 0 0 0 0 0 0 0 0 0 0 0 0 0 0 0 0 0 0 0 0 0 0 0 0 0 0 0 0 0 0 0 0 0 0 0 0 0 0 0 0 0 0
0 0 0 0 0 0 0 0 0 0 0 0 0 0 0 0 0 0 0 0 0 0 0 0 0 0 0 0 0 0 0 0 0 0 0 0 0 0 0 0 0 0 0 0 0 0 0 0 0
0 0 0 0 0 0 0 0 0 0 0 0 0 0 0 0 0 0 0 0 0 0 0 0 0 0 0 0 0 0 0 0 0 0 0 0 0 0 0 0 0 0 0 0 0 0 0 0 0
0 0 0 0 0 0 0 0 0 0 0 0 0 0 0 0 0 0 0 0 0 0 0 0 0 0 0 0 0 0 0 0 0 0 0 0 0 0 0 0 0 0 0 0 0 0 0 0 0
0 0 0 0 0 0 0 0 0 0 0 0 0 0 0 0 0 0 0 0 0 0 0 0 0 0 0 0 0 0 0 0 0 0 0 0 0 0 0 0 0 0 0 0 0 0 0 0 0
0 0 0 0 0 0 0 0 0 0 0 0 0 0 0 0 0 0 0 0 0 0 0 0 0 0 0 0 0 0 0 0 0 0 0 0 0 0 0 0 0 0 0 0 0 0 0 0 0
Wind_Speed
7 5 2 4 5 4 2 4 2 1 0 0 2 5 7 5 3 5 2 2 5 4 2 3 6 9 10 11 11 11 11 12 12 12 13 13 13 13 13 13 13 13 13 13 13 14 14 14 14
3 2 4 5 5 2 4 3 3 3 3 2 4 5 6 5 3 5 2 3 5 4 3 4 7 10 11 11 11 11 11 11 12 12 12 12 13 13 13 13 13 13 13 13 13 13 13 13 13
3 2 4 4 3 6 5 3 4 2 1 2 4 5 5 4 3 2 2 4 5 5 4 5 9 10 10 11 11 11 11 11 11 11 11 11 12 12 12 12 12 12 12 12 12 12 12 12 12
3 4 4 3 4 5 5 3 3 2 2 3 5 5 4 3 1 2 4 5 6 5 4 5 10 10 10 10 10 11 11 10 11 11 10 10 11 12 12 12 12 12 12 12 12 12 11 11 11
4 4 3 1 4 3 2 2 2 2 2 2 4 5 3 3 4 5 5 6 6 5 5 5 9 10 10 10 10 10 10 10 11 10 10 10 10 11 11 11 11 11 11 11 11 11 11 10 10
4 4 4 4 4 2 2 1 1 2 2 2 4 5 2 1 4 5 6 6 6 6 5 5 9 9 9 10 10 10 10 10 10 10 10 10 10 10 10 10 10 10 10 11 11 10 10 10 10
4 4 4 4 3 2 2 0 1 2 2 0 3 6 2 1 3 5 6 7 7 7 6 5 5 6 8 9 9 9 10 10 10 10 10 9 9 9 9 9 10 10 10 10 10 10 10 10 10
4 4 2 2 3 3 1 1 1 1 1 2 3 7 5 3 4 6 6 7 6 6 6 5 5 5 5 5 8 9 9 9 9 9 10 10 9 8 9 8 9 9 9 9 9 9 9 9 9
3 4 3 3 4 3 0 2 1 2 4 4 3 2 3 8 7 8 6 5 5 5 4 4 4 4 4 4 6 7 7 8 8 7 9 8 4 4 5 6 8 8 8 8 8 8 9 8 8
4 3 4 2 2 2 1 1 0 3 3 3 3 4 7 8 8 8 6 4 3 3 3 3 3 4 4 4 3 3 4 4 4 3 4 3 3 3 5 7 8 8 8 8 8 8 8 6 4
3 4 3 1 0 1 1 2 1 3 1 2 4 6 7 7 7 6 5 4 3 2 3 3 3 3 3 3 2 2 2 2 3 3 3 3 3 3 3 3 4 4 6 4 5 5 3 3 3
2 1 1 1 1 1 1 1 2 1 1 1 5 8 8 8 6 5 5 3 3 3 3 3 3 3 3 3 2 2 2 2 2 2 3 3 2 2 2 2 2 2 2 2 2 2 3 3 3
1 0 1 2 3 3 4 2 1 1 1 5 8 8 7 6 5 3 4 4 3 3 2 2 2 3 3 3 2 2 2 2 2 2 2 3 2 2 2 2 1 2 1 2 2 2 2 3 3
2 1 0 1 1 1 2 1 1 1 3 6 7 6 5 5 4 4 3 3 3 3 2 2 2 3 3 3 2 2 1 1 2 2 2 2 2 2 2 2 1 1 1 1 1 1 1 1 2
2 2 2 1 1 1 3 2 2 3 4 5 4 4 4 3 3 3 3 3 3 3 2 2 3 3 3 3 2 2 1 2 2 1 2 2 2 2 2 2 1 1 1 1 1 2 2 2 2
2 2 1 2 1 1 4 5 3 3 6 5 3 3 3 2 2 2 2 2 2 3 3 2 2 3 2 2 2 2 1 2 1 1 1 2 2 2 2 1 1 0 1 1 1 1 2 1 1
1 1 3 2 1 2 4 6 3 3 5 5 4 3 3 2 1 1 2 2 2 3 3 3 2 2 2 2 2 2 2 2 2 2 2 2 2 2 2 1 1 1 1 1 1 1 1 1 1
4 3 3 4 2 1 3 6 3 3 5 5 4 3 3 3 2 1 1 2 2 2 3 3 2 2 2 2 2 2 2 2 1 2 2 2 2 1 2 1 1 1 1 1 1 1 1 1 1
3 3 3 3 1 1 5 7 6 3 4 4 4 3 3 3 1 1 2 2 2 2 2 2 2 1 1 1 1 1 1 0 1 1 2 2 2 2 1 1 1 1 2 1 1 1 1 1 1
2 2 3 3 2 1 3 7 6 4 5 5 6 5 5 3 1 1 1 2 2 1 1 2 2 1 1 1 1 1 1 0 0 1 1 2 2 2 1 1 1 1 1 1 1 1 1 0 0
2 4 3 3 3 1 2 5 3 2 1 1 3 3 3 4 4 2 1 1 1 1 1 1 1 1 1 1 1 1 2 1 1 1 1 1 1 1 1 1 0 1 1 1 1 2 2 1 1
4 2 2 1 1 3 1 5 6 3 2 2 3 3 3 2 3 3 2 1 1 1 1 1 1 1 1 1 2 2 1 1 1 1 1 1 1 1 1 1 0 0 1 1 1 1 1 2 1
2 0 1 1 1 2 2 3 7 1 4 5 5 5 4 3 4 3 3 2 1 0 1 0 1 1 1 1 1 2 1 0 1 1 1 1 1 1 1 1 1 1 1 1 1 1 1 1 2
2 3 3 2 2 4 5 5 8 4 5 4 4 5 5 4 3 3 2 2 1 1 1 1 1 0 1 1 1 1 1 0 0 1 1 1 1 1 1 1 1 1 1 1 2 2 2 2 2
3 4 3 3 1 6 2 4 9 4 3 3 4 6 5 4 4 3 2 2 1 0 0 0 0 0 0 1 1 1 1 1 2 2 2 1 1 1 1 1 1 1 2 2 2 2 2 2 2
2 4 5 5 5 5 1 7 7 3 2 1 1 3 3 3 3 3 3 3 2 1 1 0 0 0 0 0 1 1 1 1 1 2 2 2 2 2 2 2 2 2 2 2 2 2 2 2 3
3 3 3 3 1 3 5 6 7 1 0 0 1 2 2 2 2 2 2 2 2 1 1 1 1 1 1 1 0 1 1 1 1 2 2 2 2 2 2 2 3 2 2 2 2 2 2 2 3
2 4 4 3 3 5 6 5 6 4 4 3 2 2 2 1 1 1 1 1 1 1 1 0 0 1 1 1 1 1 1 1 1 1 2 2 3 2 3 3 2 2 2 3 3 3 2 2 3
3 2 3 3 3 4 5 8 4 5 5 5 4 4 3 2 2 1 1 0 1 0 0 0 0 1 1 1 1 1 1 1 1 2 2 3 3 3 3 3 3 3 3 3 3 3 3 3 3
4 5 6 5 5 4 4 9 2 2 2 3 3 2 2 2 1 1 1 0 0 1 0 0 0 1 1 1 1 1 1 1 2 2 3 3 3 3 3 3 3 3 3 3 4 4 4 4 4
Wind_Direction
331 339 50 57 61 63 217 246 232 233 107 174 95 99 109 101 120 143 139 99 104 121 123 119 105 106 102 98 94 91 88 87 85 84 83 83 82 81 81 80 78 76 74 73 73 73 72 71 73
343 359 57 64 100 151 247 245 228 231 186 137 68 78 83 80 70 99 99 90 103 106 97 108 105 105 103 102 98 94 92 90 86 83 82 82 82 81 81 79 77 76 75 74 73 72 72 69 68
336 54 84 86 139 185 205 214 205 231 183 104 73 51 77 86 86 95 104 114 101 90 81 96 101 102 102 102 100 96 93 91 88 85 83 82 81 80 79 79 77 76 75 75 74 73 70 66 64
57 54 61 95 204 218 202 205 170 134 58 65 99 75 65 33 53 106 106 98 96 82 75 94 97 99 99 99 99 98 95 93 91 88 86 84 82 81 79 77 77 76 76 76 75 72 68 62 62
62 83 89 174 229 245 239 234 163 114 76 52 96 99 75 10 65 98 96 90 93 82 73 88 94 96 96 100 99 99 96 93 91 89 87 86 84 83 82 79 78 76 75 76 75 72 69 64 62
62 77 121 203 227 242 266 264 111 86 83 63 90 106 119 66 82 92 87 83 83 84 72 76 88 90 91 93 96 96 95 92 88 88 87 86 85 83 83 81 80 79 77 76 73 69 66 63 62
108 113 171 193 202 240 259 23 101 123 95 62 117 115 135 91 95 101 90 82 78 74 69 63 66 74 81 85 88 89 91 92 90 86 84 81 82 83 84 80 81 79 76 73 72 68 63 61 60
127 116 162 193 185 227 285 78 83 147 154 24 86 135 173 184 125 100 87 79 77 68 65 61 61 67 73 77 82 82 85 88 87 85 81 77 77 78 77 74 77 78 75 72 70 67 62 59 57
92 95 194 207 190 212 22 88 20 56 88 52 44 102 139 130 119 103 89 75 70 63 56 60 62 60 67 80 81 81 83 84 83 81 80 76 70 71 70 67 72 74 71 67 64 62 59 55 55
96 156 209 226 209 169 65 77 81 80 64 65 53 65 106 117 117 117 116 116 103 81 60 59 66 65 63 74 73 71 74 77 78 80 83 80 72 63 66 63 64 65 62 58 54 50 51 46 42
128 175 193 268 285 108 61 22 1 124 156 195 167 146 127 114 115 120 120 126 130 115 73 55 69 71 72 75 78 72 70 67 71 73 75 83 76 66 58 56 53 53 54 48 42 41 38 42 41
127 212 179 278 343 62 81 60 24 50 211 128 131 134 131 129 136 140 136 125 114 100 73 55 58 74 72 73 75 77 78 77 73 72 81 94 91 79 71 62 51 54 49 46 38 36 37 46 46
164 156 48 60 55 79 87 75 109 346 61 94 103 111 125 131 132 126 121 114 109 101 87 64 61 72 77 79 72 70 68 80 87 84 84 96 106 106 96 86 70 64 60 60 47 42 45 50 49
169 150 290 356 38 54 103 32 90 236 111 99 108 119 124 129 124 110 109 111 116 117 110 82 76 73 76 79 81 80 73 72 77 72 79 98 109 117 119 106 92 72 72 83 74 58 58 51 54
99 68 349 317 172 164 103 332 234 195 130 117 117 124 121 120 115 128 146 142 142 133 116 100 96 77 79 79 80 80 70 80 80 70 64 84 100 114 121 124 105 84 81 89 80 67 62 56 54
71 84 276 280 162 171 144 249 248 167 143 149 151 141 139 138 134 136 126 127 123 118 112 100 100 88 81 78 82 84 69 70 69 69 62 68 84 104 116 118 126 130 94 89 107 99 88 68 66
54 200 235 272 224 168 179 233 243 168 154 168 172 167 162 151 130 136 123 128 128 126 119 109 90 96 91 81 78 73 72 66 58 54 51 43 54 90 114 117 112 127 100 89 113 104 125 117 102
210 215 229 233 246 168 216 241 249 195 175 183 182 177 169 169 196 182 123 113 111 114 112 112 98 89 95 92 74 62 54 49 54 60 48 39 35 58 101 112 113 104 101 81 94 116 95 126 131
187 195 239 250 262 215 236 255 258 215 192 195 190 188 188 196 184 105 96 90 87 91 101 108 99 79 88 111 125 109 75 24 35 55 50 48 33 29 76 83 119 117 114 120 103 115 119 76 95
186 220 250 285 324 265 267 269 266 225 207 198 192 192 196 191 161 124 103 100 102 110 124 130 131 117 108 128 149 160 149 156 64 28 23 36 38 21 33 87 129 107 104 102 111 111 137 152 132
223 209 225 251 323 306 313 292 257 248 185 166 189 186 190 184 182 176 147 121 111 130 175 164 165 141 120 95 94 81 61 37 24 11 357 7 29 48 22 33 133 126 139 182 203 184 160 193 251
237 212 196 212 19 284 210 277 268 230 245 227 210 191 193 188 174 165 154 133 146 212 193 144 139 118 106 105 110 125 138 194 249 262 297 323 358 37 36 20 282 158 146 180 219 195 184 169 211
214 160 166 178 178 285 252 232 279 260 244 240 223 212 202 191 179 174 173 174 164 76 87 132 131 112 97 93 122 140 163 223 305 327 312 287 312 3 25 21 321 230 209 205 221 218 196 189 202
125 58 43 61 82 266 225 199 271 233 227 235 218 208 201 192 181 174 169 142 112 61 56 58 87 88 99 111 107 128 175 222 277 307 288 281 279 311 353 340 322 271 242 234 233 226 218 219 220
83 96 29 345 296 252 206 205 252 252 240 216 210 200 193 189 180 169 162 153 144 97 84 53 108 118 122 134 157 198 208 216 235 249 249 271 279 271 263 273 266 279 266 254 251 236 237 233 226
189 153 168 209 235 276 268 232 252 261 282 257 194 176 168 181 185 182 184 182 188 194 180 203 232 274 216 181 235 281 289 222 247 264 270 260 266 269 262 249 246 253 265 259 253 249 246 242 241
152 192 170 147 249 269 263 278 291 263 286 112 137 140 170 183 186 192 184 179 188 198 209 218 245 298 299 261 293 274 293 273 272 284 284 283 297 297 292 271 253 253 263 259 245 247 250 245 244
156 150 118 147 200 254 276 262 251 248 239 227 211 193 192 153 146 174 196 201 199 207 219 226 261 282 316 316 300 309 308 310 307 299 293 294 297 306 296 289 276 263 259 257 241 248 247 240 251
155 155 155 167 186 194 261 264 235 215 212 208 211 197 189 185 190 198 222 233 214 199 174 226 300 338 343 328 309 314 314 325 324 301 296 297 298 295 286 280 280 273 264 254 244 247 243 239 249
186 184 162 180 226 206 222 267 284 213 212 182 185 185 181 187 184 179 218 252 32 6 342 273 339 334 318 315 313 302 317 327 311 303 303 303 296 290 285 284 282 279 277 266 249 250 247 236 241